FW1574 Weather Reports


Display with metric or nautical units.
time (UTC)temp
F
wind
direction
speed
MPH
gust
MPH
rain 1hr
in
rain 24hr
in
rain mn
in
humidity
%
barometer
mb
20260902000010 85 98 0.0 0.0 0.00 0.00 0.00 71 1015.8
20260901235512 85 98 0.0 0.0 0.00 0.00 0.00 67 1015.8
20260901235009 85 98 0.0 0.0 0.00 0.00 0.00 71 1015.8
20260901234525 86 98 0.0 0.0 0.00 0.00 0.00 67 1015.9
20260901234009 86 98 0.0 0.0 0.00 0.00 0.00 69 1016.0
20260901233510 86 98 0.0 0.0 0.00 0.00 0.00 65 1016.0
20260901233011 87 98 0.0 0.0 0.00 0.00 0.00 65 1016.0
20260901232508 87 98 0.0 0.0 0.00 0.00 0.00 63 1016.1
20260901232008 88 98 0.0 0.0 0.00 0.00 0.00 64 1016.1
20260901231508 88 98 0.0 0.0 0.00 0.00 0.00 62 1016.1
20260901231008 89 98 0.0 0.0 0.00 0.00 0.00 60 1016.1
20260901230507 89 98 0.0 0.0 0.00 0.00 0.00 60 1016.1
20260901230011 90 98 0.0 0.0 0.00 0.00 0.00 60 1015.9
20260901225505 90 98 0.0 1.0 0.00 0.00 0.00 58 1016.0
20260901225004 90 98 0.0 1.0 0.00 0.00 0.00 56 1016.0
20260901224504 90 98 0.0 0.0 0.00 0.00 0.00 58 1015.9
20260901224004 91 98 0.0 3.0 0.00 0.00 0.00 57 1015.8
20260901223503 92 98 0.0 3.0 0.00 0.00 0.00 54 1015.9
20260901223005 92 119 1.0 5.0 0.00 0.00 0.00 53 1015.8
20260901222503 92 115 2.0 5.0 0.00 0.00 0.00 53 1015.8
20260901222005 92 65 1.0 3.0 0.00 0.00 0.00 55 1015.8
20260901221507 92 109 0.0 2.0 0.00 0.00 0.00 54 1015.8
20260901221003 91 85 0.0 1.0 0.00 0.00 0.00 54 1015.7
20260901220502 91 126 0.0 1.0 0.00 0.00 0.00 54 1015.8
20260901220002 92 77 0.0 5.0 0.00 0.00 0.00 55 1015.7
20260901215503 92 84 1.0 5.0 0.00 0.00 0.00 53 1015.7
20260901215003 92 136 1.0 3.0 0.00 0.00 0.00 54 1015.7
20260901214500 92 78 0.0 3.0 0.00 0.00 0.00 54 1015.7
20260901214100 92 90 1.0 3.0 0.00 0.00 0.00 55 1015.8
20260901213601 92 5 0.0 1.0 0.00 0.00 0.00 55 1015.8
20260901213106 91 49 0.0 0.0 0.00 0.00 0.00 57 1015.8
20260901212600 92 49 0.0 0.0 0.00 0.00 0.00 59 1015.8
20260901212100 92 348 0.0 0.0 0.00 0.00 0.00 56 1015.8
20260901211532 92 355 0.0 1.0 0.00 0.00 0.00 54 1015.8
20260901211100 92 65 0.0 2.0 0.00 0.00 0.00 53 1015.9
20260901210558 92 84 0.0 3.0 0.00 0.00 0.00 56 1015.9
20260901210058 93 94 0.0 3.0 0.00 0.00 0.00 52 1016.0
20260901205600 93 95 1.0 6.0 0.00 0.00 0.00 52 1015.9
20260901205057 93 92 1.0 6.0 0.00 0.00 0.00 52 1016.0
20260901204558 92 57 0.0 3.0 0.00 0.00 0.00 54 1016.0
20260901204056 92 124 0.0 2.0 0.00 0.00 0.00 53 1016.1
20260901203556 92 66 0.0 2.0 0.00 0.00 0.00 54 1016.2
20260901203102 92 323 0.0 3.0 0.00 0.00 0.00 53 1016.2
20260901202554 92 336 0.0 3.0 0.00 0.00 0.00 54 1016.2
20260901202054 92 267 1.0 3.0 0.00 0.00 0.00 52 1016.3
20260901201556 92 61 1.0 4.0 0.00 0.00 0.00 54 1016.4
20260901201054 92 350 1.0 4.0 0.00 0.00 0.00 53 1016.5
20260901200553 92 111 0.0 3.0 0.00 0.00 0.00 53 1016.5
20260901200053 93 104 1.0 6.0 0.00 0.00 0.00 51 1016.5
20260901195553 93 78 1.0 6.0 0.00 0.00 0.00 51 1016.5
20260901195053 93 136 2.0 5.0 0.00 0.00 0.00 54 1016.5
20260901194552 92 360 1.0 4.0 0.00 0.00 0.00 55 1016.6
20260901194052 92 292 0.0 3.0 0.00 0.00 0.00 55 1016.7
20260901193550 92 267 1.0 3.0 0.00 0.00 0.00 53 1016.8
20260901193103 92 290 0.0 3.0 0.00 0.00 0.00 56 1016.9
20260901192549 92 27 1.0 5.0 0.00 0.00 0.00 55 1016.9
20260901192049 93 69 0.0 5.0 0.00 0.00 0.00 54 1017.0
20260901191550 92 98 1.0 4.0 0.00 0.00 0.00 53 1017.1
20260901191047 93 292 2.0 4.0 0.00 0.00 0.00 53 1017.0
20260901190549 92 12 1.0 4.0 0.00 0.00 0.00 55 1017.2
20260901190046 92 152 1.0 4.0 0.00 0.00 0.00 55 1017.2
20260901185546 92 53 1.0 2.0 0.00 0.00 0.00 58 1017.4
20260901185047 92 294 0.0 3.0 0.00 0.00 0.00 57 1017.3
20260901184548 92 313 1.0 3.0 0.00 0.00 0.00 58 1017.3
20260901184046 92 242 1.0 3.0 0.00 0.00 0.00 60 1017.5
20260901183546 91 355 1.0 4.0 0.00 0.00 0.00 56 1017.5
20260901183044 92 111 2.0 4.0 0.00 0.00 0.00 56 1017.6
20260901182546 91 119 1.0 3.0 0.00 0.00 0.00 56 1017.6
20260901182044 91 223 0.0 3.0 0.00 0.00 0.00 57 1017.6
20260901181543 91 355 0.0 3.0 0.00 0.00 0.00 55 1017.6
20260901181045 91 97 0.0 4.0 0.00 0.00 0.00 57 1017.8
20260901180544 91 242 1.0 4.0 0.00 0.00 0.00 55 1017.7
20260901180042 91 348 0.0 3.0 0.00 0.00 0.00 56 1017.8
20260901175544 91 215 0.0 3.0 0.00 0.00 0.00 56 1017.9
20260901175041 91 142 1.0 3.0 0.00 0.00 0.00 55 1017.9
20260901174541 91 98 1.0 3.0 0.00 0.00 0.00 55 1018.0
20260901174042 91 88 0.0 1.0 0.00 0.00 0.00 56 1018.0
20260901173542 91 57 0.0 0.0 0.00 0.00 0.00 58 1018.1
20260901173039 91 183 0.0 0.0 0.00 0.00 0.00 57 1018.1
20260901172539 90 120 0.0 0.0 0.00 0.00 0.00 55 1018.3
20260901172039 90 42 0.0 0.0 0.00 0.00 0.00 60 1018.3
20260901171539 90 324 0.0 0.0 0.00 0.00 0.00 62 1018.4
20260901171038 89 233 0.0 0.0 0.00 0.00 0.00 60 1018.4
20260901170538 90 254 0.0 0.0 0.00 0.00 0.00 59 1018.5
20260901170036 89 330 0.0 0.0 0.00 0.00 0.00 61 1018.5
20260901165534 89 297 0.0 0.0 0.00 0.00 0.00 64 1018.6
20260901165034 89 11 0.0 0.0 0.00 0.00 0.00 61 1018.7
20260901164534 89 32 0.0 0.0 0.00 0.00 0.00 62 1018.8
20260901164034 88 70 0.0 0.0 0.00 0.00 0.00 64 1018.9
20260901163531 88 271 0.0 0.0 0.00 0.00 0.00 62 1018.9
20260901163031 88 278 0.0 0.0 0.00 0.00 0.00 62 1019.0
20260901162534 87 257 0.0 0.0 0.00 0.00 0.00 64 1019.0
20260901162029 87 47 0.0 0.0 0.00 0.00 0.00 66 1019.1
20260901161537 87 317 0.0 0.0 0.00 0.00 0.00 66 1019.1
20260901161030 86 266 0.0 0.0 0.00 0.00 0.00 64 1019.2
20260901160530 86 345 0.0 0.0 0.00 0.00 0.00 66 1019.2
20260901160037 86 250 0.0 0.0 0.00 0.00 0.00 64 1019.3
20260901155524 86 288 0.0 0.0 0.00 0.00 0.00 69 1019.4
20260901155025 85 275 0.0 0.0 0.00 0.00 0.00 71 1019.4
20260901154524 85 250 0.0 0.0 0.00 0.00 0.00 71 1019.4
20260901154022 84 242 0.0 0.0 0.00 0.00 0.00 71 1019.5
20260901153521 84 247 0.0 0.0 0.00 0.00 0.00 72 1019.5
20260901153021 84 254 0.0 0.0 0.00 0.00 0.00 72 1019.5
20260901152522 84 252 0.0 0.0 0.00 0.00 0.00 71 1019.6
20260901152019 83 270 0.0 0.0 0.00 0.00 0.00 74 1019.7
20260901151518 83 270 0.0 0.0 0.00 0.00 0.00 75 1019.6
20260901151022 83 269 0.0 0.0 0.00 0.00 0.00 75 1019.7
20260901150516 83 277 0.0 0.0 0.00 0.00 0.00 77 1019.7
20260901150014 82 54 0.0 0.0 0.00 0.00 0.00 79 1019.6
20260901145514 82 54 0.0 0.0 0.00 0.00 0.00 78 1019.7
20260901145014 82 102 0.0 0.0 0.00 0.00 0.00 80 1019.7
20260901144514 81 67 0.0 0.0 0.00 0.00 0.00 80 1019.7
20260901144012 81 67 0.0 0.0 0.00 0.00 0.00 81 1019.7
20260901143511 81 9 0.0 0.0 0.00 0.00 0.00 81 1019.7
20260901143010 81 105 0.0 0.0 0.00 0.00 0.00 83 1019.7
20260901142510 80 136 0.0 0.0 0.00 0.00 0.00 83 1019.7
20260901142010 80 136 0.0 0.0 0.00 0.00 0.00 82 1019.7
20260901141508 79 135 0.0 0.0 0.00 0.00 0.00 85 1019.7
20260901141006 79 297 0.0 0.0 0.00 0.00 0.00 86 1019.7
20260901140504 78 297 0.0 0.0 0.00 0.00 0.00 84 1019.7
20260901140005 78 297 0.0 0.0 0.00 0.00 0.00 85 1019.7
20260901135502 77 294 0.0 0.0 0.00 0.00 0.00 89 1019.7
20260901135003 76 294 0.0 0.0 0.00 0.00 0.00 92 1019.7
20260901134624 75 360 0.0 0.0 0.00 0.00 0.00 94 1019.6
20260901134058 74 360 0.0 0.0 0.00 0.00 0.00 97 1019.6
20260901133557 74 360 0.0 0.0 0.00 0.00 0.00 97 1019.7
20260901133056 73 360 0.0 0.0 0.00 0.00 0.00 97 1019.7
20260901132601 73 360 0.0 0.0 0.00 0.00 0.00 97 1019.8
20260901132056 73 360 0.0 0.0 0.00 0.00 0.00 97 1019.8
20260901131556 73 360 0.0 0.0 0.00 0.00 0.00 97 1019.8
20260901131056 72 360 0.0 0.0 0.00 0.00 0.00 97 1019.7
20260901130559 72 360 0.0 0.0 0.00 0.00 0.00 97 1019.8
20260901130107 71 360 0.0 0.0 0.00 0.00 0.00 97 1019.7
20260901125554 71 360 0.0 0.0 0.00 0.00 0.00 97 1019.7
20260901125054 71 360 0.0 0.0 0.00 0.00 0.00 96 1019.7
20260901124602 71 360 0.0 0.0 0.00 0.00 0.00 96 1019.7
20260901124053 71 360 0.0 0.0 0.00 0.00 0.00 96 1019.7
20260901123553 70 360 0.0 0.0 0.00 0.00 0.00 96 1019.6
20260901123053 70 360 0.0 0.0 0.00 0.00 0.00 96 1019.6
20260901122554 70 360 0.0 0.0 0.00 0.00 0.00 96 1019.5
20260901122051 69 360 0.0 0.0 0.00 0.00 0.00 96 1019.5
20260901121555 69 360 0.0 0.0 0.00 0.00 0.00 96 1019.4
20260901121052 69 360 0.0 0.0 0.00 0.00 0.00 96 1019.4
20260901120551 69 360 0.0 0.0 0.00 0.00 0.00 95 1019.3
20260901120059 69 360 0.0 0.0 0.00 0.00 0.00 95 1019.2
20260901115548 69 360 0.0 0.0 0.00 0.00 0.00 95 1019.2
20260901115047 69 360 0.0 0.0 0.00 0.00 0.00 95 1019.1
20260901114547 69 360 0.0 0.0 0.00 0.00 0.00 95 1018.9
20260901114046 69 360 0.0 0.0 0.00 0.00 0.00 95 1018.8
20260901113546 69 360 0.0 0.0 0.00 0.00 0.00 95 1018.8
20260901113108 69 360 0.0 0.0 0.00 0.00 0.00 95 1018.7
20260901112544 69 360 0.0 0.0 0.00 0.00 0.00 95 1018.6
20260901112043 69 360 0.0 0.0 0.00 0.00 0.00 95 1018.6
20260901111542 69 360 0.0 0.0 0.00 0.00 0.00 95 1018.4
20260901111042 69 360 0.0 0.0 0.00 0.00 0.00 95 1018.3
20260901110543 69 360 0.0 0.0 0.00 0.00 0.00 95 1018.4
20260901110055 69 360 0.0 0.0 0.00 0.00 0.00 95 1018.3
20260901105543 69 360 0.0 0.0 0.00 0.00 0.00 95 1018.3
20260901105042 69 360 0.0 0.0 0.00 0.00 0.00 95 1018.3
20260901104544 69 360 0.0 0.0 0.00 0.00 0.00 95 1018.2
20260901104039 69 360 0.0 0.0 0.00 0.00 0.00 95 1018.2
20260901103538 69 360 0.0 0.0 0.00 0.00 0.00 95 1018.2
20260901103038 69 360 0.0 0.0 0.00 0.00 0.00 95 1018.2
20260901102538 69 360 0.0 0.0 0.00 0.00 0.00 95 1018.2
20260901102037 69 360 0.0 0.0 0.00 0.00 0.00 95 1018.1
20260901101556 69 360 0.0 0.0 0.00 0.00 0.00 95 1018.1
20260901101036 69 360 0.0 0.0 0.00 0.00 0.00 95 1018.2
20260901100536 69 360 0.0 1.0 0.00 0.00 0.00 95 1018.1
20260901100036 69 360 0.0 1.0 0.00 0.00 0.00 95 1018.1
20260901095534 69 360 0.0 1.0 0.00 0.00 0.00 95 1018.0
20260901095034 69 360 0.0 1.0 0.00 0.00 0.00 95 1018.0
20260901094534 69 360 0.0 0.0 0.00 0.00 0.00 95 1017.9
20260901094033 70 360 0.0 0.0 0.00 0.00 0.00 95 1017.9
20260901093535 70 360 0.0 0.0 0.00 0.00 0.00 95 1018.0
20260901093034 70 360 0.0 0.0 0.00 0.00 0.00 95 1018.0
20260901092533 70 360 0.0 0.0 0.00 0.00 0.00 95 1018.0
20260901092033 70 360 0.0 0.0 0.00 0.00 0.00 95 1017.9
20260901091533 70 360 0.0 0.0 0.00 0.00 0.00 95 1017.9
20260901091032 70 360 0.0 0.0 0.00 0.00 0.00 95 1017.9
20260901090532 70 360 0.0 0.0 0.00 0.00 0.00 95 1017.8
20260901090034 70 360 0.0 0.0 0.00 0.00 0.00 95 1017.9
20260901085531 70 360 0.0 0.0 0.00 0.00 0.00 95 1017.7
20260901085031 70 360 0.0 0.0 0.00 0.00 0.00 95 1017.7
20260901084541 70 360 0.0 0.0 0.00 0.00 0.00 95 1017.7
20260901084035 69 360 0.0 0.0 0.00 0.00 0.00 95 1017.7
20260901083535 69 360 0.0 0.0 0.00 0.00 0.00 95 1017.6
20260901083036 69 360 0.0 0.0 0.00 0.00 0.00 95 1017.5
20260901082530 69 360 0.0 0.0 0.00 0.00 0.00 95 1017.6
20260901082030 69 360 0.0 0.0 0.00 0.00 0.00 95 1017.6
20260901081533 69 360 0.0 0.0 0.00 0.00 0.00 95 1017.5
20260901081030 70 360 0.0 0.0 0.00 0.00 0.00 95 1017.6
20260901080530 70 360 0.0 0.0 0.00 0.00 0.00 95 1017.6
20260901080037 70 360 0.0 0.0 0.00 0.00 0.00 95 1017.6
20260901075529 70 360 0.0 0.0 0.00 0.00 0.00 95 1017.5
20260901075028 70 360 0.0 0.0 0.00 0.00 0.00 95 1017.5
20260901074528 70 360 0.0 0.0 0.00 0.00 0.00 95 1017.5
20260901074027 70 360 0.0 0.0 0.00 0.00 0.00 95 1017.5
20260901073527 70 360 0.0 0.0 0.00 0.00 0.00 95 1017.4
20260901073029 70 360 0.0 0.0 0.00 0.00 0.00 95 1017.4
20260901072527 70 360 0.0 0.0 0.00 0.00 0.00 95 1017.4
20260901072026 70 360 0.0 0.0 0.00 0.00 0.00 95 1017.4
20260901071526 70 360 0.0 0.0 0.00 0.00 0.00 95 1017.4
20260901071028 70 360 0.0 0.0 0.00 0.00 0.00 95 1017.4
20260901070524 71 360 0.0 0.0 0.00 0.00 0.00 95 1017.5
20260901070023 71 360 0.0 0.0 0.00 0.00 0.00 95 1017.5
20260901065525 71 360 0.0 0.0 0.00 0.00 0.00 95 1017.6
20260901065022 71 360 0.0 0.0 0.00 0.00 0.00 95 1017.6
20260901064527 71 360 0.0 0.0 0.00 0.00 0.00 95 1017.6
20260901064022 71 360 0.0 0.0 0.00 0.00 0.00 95 1017.7
20260901063522 71 360 0.0 0.0 0.00 0.00 0.00 95 1017.7
20260901063021 71 360 0.0 0.0 0.00 0.00 0.00 95 1017.8
20260901062526 71 360 0.0 0.0 0.00 0.00 0.00 95 1017.8
20260901062031 71 360 0.0 0.0 0.00 0.00 0.00 95 1017.9
20260901061521 71 360 0.0 0.0 0.00 0.00 0.00 95 1017.9
20260901061021 71 360 0.0 0.0 0.00 0.00 0.00 95 1017.9
20260901060520 71 360 0.0 0.0 0.00 0.00 0.00 94 1017.9
20260901060019 71 360 0.0 0.0 0.00 0.00 0.00 94 1017.9
20260901055520 71 360 0.0 0.0 0.00 0.00 0.00 94 1017.9
20260901055025 71 360 0.0 0.0 0.00 0.00 0.00 94 1017.8
20260901054518 71 360 0.0 0.0 0.00 0.00 0.00 94 1017.8
20260901054024 71 360 0.0 0.0 0.00 0.00 0.00 93 1017.9
20260901053520 72 360 0.0 0.0 0.00 0.00 0.00 94 1017.9
20260901053020 72 360 0.0 0.0 0.00 0.00 0.00 94 1017.9
20260901052519 72 360 0.0 0.0 0.00 0.00 0.00 94 1017.9
20260901052015 72 360 0.0 0.0 0.00 0.00 0.00 93 1017.9
20260901051515 72 360 0.0 1.0 0.00 0.00 0.00 93 1017.9
20260901051015 72 360 0.0 1.0 0.00 0.00 0.00 93 1017.9
20260901050515 72 360 0.0 1.0 0.00 0.00 0.00 93 1017.8
20260901050014 72 360 0.0 0.0 0.00 0.00 0.00 92 1017.8
20260901045514 72 360 0.0 0.0 0.00 0.00 0.00 92 1017.9
20260901045016 72 360 0.0 0.0 0.00 0.00 0.00 92 1017.8
20260901044515 72 360 0.0 0.0 0.00 0.00 0.00 92 1017.8
20260901044012 72 360 0.0 0.0 0.00 0.00 0.00 92 1017.7
20260901043512 72 360 0.0 0.0 0.00 0.00 0.00 92 1017.6
20260901043020 73 360 0.0 0.0 0.00 0.00 0.00 92 1017.6
20260901042518 73 360 0.0 0.0 0.00 0.00 0.00 92 1017.6
20260901042020 73 360 0.0 0.0 0.00 0.00 0.00 92 1017.7
20260901041510 73 360 0.0 0.0 0.00 0.00 0.00 91 1017.7
20260901041010 73 360 0.0 0.0 0.00 0.00 0.00 91 1017.7
20260901040509 73 360 0.0 0.0 0.00 0.00 0.00 92 1017.6
20260901040009 73 360 0.0 0.0 0.00 0.00 0.00 92 1017.7
20260901035507 73 360 0.0 0.0 0.00 0.00 0.00 91 1017.7
20260901035009 74 360 0.0 0.0 0.00 0.00 0.00 91 1017.6
20260901034507 74 360 0.0 0.0 0.00 0.00 0.00 90 1017.6
20260901034009 74 360 0.0 0.0 0.00 0.00 0.00 90 1017.6
20260901033507 74 360 0.0 0.0 0.00 0.00 0.00 90 1017.7
20260901033007 74 360 0.0 0.0 0.00 0.00 0.00 90 1017.6
20260901032507 74 360 0.0 0.0 0.00 0.00 0.00 90 1017.6
20260901032010 75 360 0.0 0.0 0.00 0.00 0.00 90 1017.6
20260901031507 75 360 0.0 0.0 0.00 0.00 0.00 89 1017.6
20260901031006 75 360 0.0 0.0 0.00 0.00 0.00 89 1017.6
20260901030506 75 360 0.0 1.0 0.00 0.00 0.00 89 1017.6
20260901030014 75 360 0.0 1.0 0.00 0.00 0.00 88 1017.7
20260901025506 76 360 0.0 0.0 0.00 0.00 0.00 87 1017.7
20260901025006 75 360 0.0 0.0 0.00 0.00 0.00 88 1017.7
20260901024507 75 360 0.0 0.0 0.00 0.00 0.00 88 1017.6
20260901024008 75 360 0.0 0.0 0.00 0.00 0.00 88 1017.7
20260901023505 76 360 0.0 0.0 0.00 0.00 0.00 87 1017.7
20260901023005 76 360 0.0 0.0 0.00 0.00 0.00 86 1017.7
20260901022505 76 360 0.0 0.0 0.00 0.00 0.00 87 1017.7
20260901022008 76 360 0.0 0.0 0.00 0.00 0.00 87 1017.6
20260901021507 77 360 0.0 0.0 0.00 0.00 0.00 86 1017.6
20260901021005 77 360 0.0 0.0 0.00 0.00 0.00 86 1017.5
20260901020505 77 360 0.0 0.0 0.00 0.00 0.00 87 1017.4
20260901020016 77 360 0.0 0.0 0.00 0.00 0.00 87 1017.4
20260901015505 77 360 0.0 0.0 0.00 0.00 0.00 88 1017.3
20260901015005 76 360 0.0 0.0 0.00 0.00 0.00 88 1017.2
20260901014504 77 360 0.0 0.0 0.00 0.00 0.00 87 1017.2
20260901014004 77 360 0.0 0.0 0.00 0.00 0.00 85 1017.1
20260901013504 77 360 0.0 0.0 0.00 0.00 0.00 85 1017.0
20260901013004 78 360 0.0 0.0 0.00 0.00 0.00 83 1017.0
20260901012503 78 360 0.0 0.0 0.00 0.00 0.00 83 1016.9
20260901012003 78 360 0.0 0.0 0.00 0.00 0.00 82 1016.9
20260901011503 79 360 0.0 0.0 0.00 0.00 0.00 83 1016.8
20260901011002 79 360 0.0 0.0 0.00 0.00 0.00 81 1016.7
20260901010505 79 360 0.0 0.0 0.00 0.00 0.00 83 1016.7
20260901010002 79 360 0.0 0.0 0.00 0.00 0.00 81 1016.6
20260901005505 79 360 0.0 0.0 0.00 0.00 0.00 81 1016.6
20260901005001 79 360 0.0 0.0 0.00 0.00 0.00 81 1016.6
20260901004501 80 360 0.0 0.0 0.00 0.00 0.00 79 1016.6
20260901004003 80 360 0.0 0.0 0.00 0.00 0.00 78 1016.4
20260901003504 80 360 0.0 0.0 0.00 0.00 0.00 78 1016.4
20260901003002 81 360 0.0 0.0 0.00 0.00 0.00 78 1016.3
20260901002501 81 360 0.0 0.0 0.00 0.00 0.00 77 1016.3
20260901002002 82 360 0.0 0.0 0.00 0.00 0.00 74 1016.3
20260901001613 82 360 0.0 0.0 0.00 0.00 0.00 73 1016.3
20260901001100 82 360 0.0 0.0 0.00 0.00 0.00 69 1016.4
20260901000600 83 360 0.0 0.0 0.00 0.00 0.00 70 1016.4